Chino, CA

5:26 AM PST on February 22, 2017 (GMT -0800)
Chino

Weather History for KCNO - November, 2013

Change the Weather History Date:

Thursday, November 28, 2013

  Actual Average Record
Temperature  
Mean Temperature 56 °F -  
Max Temperature 71 °F 66 °F 84 °F (2014)
Min Temperature 42 °F 38 °F 33 °F (2005)
Degree Days  
Heating Degree Days 8    
Growing Degree Days 6 (Base 50)    
Moisture  
Dew Point 41 °F    
Average Humidity 62    
Maximum Humidity 86    
Minimum Humidity 26    
Precipitation  
Precipitation 0.00 in - - ()
Sea Level Pressure  
Sea Level Pressure 29.98 in    
Wind  
Wind Speed 3 mph (WSW)    
Max Wind Speed 10 mph    
Max Gust Speed -    
Visibility 10 miles    
Events      
Averages and records for this station are not official NWS values.
T = Trace of Precipitation, MM = Missing Value Source: NWS Daily Summary

Daily Weather History Graph

Daily Weather History Graph

Search for Another Location

Airport or City:

Trip Planner

Search our weather history database for the weather conditions in past years. The results will help you decide how hot, cold, wet, or windy it might be!

Date:

Astronomy

Nov. 28, 2013 Rise Set
Actual Time 6:35 AM PST 4:41 PM PST
Civil Twilight 6:08 AM PST 5:08 PM PST
Nautical Twilight 5:37 AM PST 5:39 PM PST
Astronomical Twilight 5:07 AM PST 6:09 PM PST
Moon 1:54 AM PST (11/28) 1:43 PM PST (11/28)
Length of Visible Light 11h 00m
Length of Day
10h 06m
Waning Crescent, 21% of the Moon is Illuminated
Nov 28
Waning Crescent
Dec 2
New
Dec 9
First Quarter
Dec 17
Full
Dec 25
Last Quarter

Hourly Weather History & Observations

Time (PST) Temp. Windchill Dew Point Humidity Pressure Visibility Wind Dir Wind Speed Gust Speed Precip Events Conditions
12:53 AM 46.0 °F 43.1 °F 37.9 °F 73% 29.93 in 10.0 mi SW 5.8 mph - N/A   Clear
1:53 AM 48.0 °F - 37.9 °F 68% 29.94 in 10.0 mi Calm Calm - N/A   Clear
2:53 AM 46.0 °F 44.8 °F 37.0 °F 71% 29.93 in 10.0 mi East 3.5 mph - N/A   Clear
3:53 AM 46.9 °F - 37.0 °F 68% 29.92 in 10.0 mi East 3.5 mph - N/A   Clear
4:53 AM 45.0 °F - 37.0 °F 74% 29.92 in 10.0 mi Calm Calm - N/A   Clear
5:53 AM 42.1 °F 40.2 °F 37.0 °F 82% 29.93 in 10.0 mi Variable 3.5 mph - N/A   Clear
6:53 AM 44.1 °F - 37.9 °F 79% 29.95 in 10.0 mi Calm Calm - N/A   Mostly Cloudy
7:53 AM 48.9 °F - 42.1 °F 77% 29.96 in 10.0 mi Calm Calm - N/A   Mostly Cloudy
8:53 AM 54.0 °F - 41.0 °F 62% 29.98 in 10.0 mi Calm Calm - N/A   Mostly Cloudy
9:53 AM 57.9 °F - 37.9 °F 47% 29.99 in 10.0 mi Calm Calm - N/A   Mostly Cloudy
10:53 AM 64.0 °F - 37.9 °F 38% 29.98 in 10.0 mi Calm Calm - N/A   Scattered Clouds
11:53 AM 68.0 °F - 35.1 °F 30% 29.97 in 10.0 mi Calm Calm - N/A   Scattered Clouds
12:53 PM 70.0 °F - 33.1 °F 26% 29.95 in 10.0 mi Calm Calm - N/A   Scattered Clouds
1:53 PM 71.1 °F - 36.0 °F 28% 29.94 in 10.0 mi WSW 6.9 mph - N/A   Scattered Clouds
2:53 PM 70.0 °F - 44.1 °F 39% 29.95 in 10.0 mi WSW 10.4 mph - N/A   Scattered Clouds
3:53 PM 64.9 °F - 45.0 °F 48% 29.97 in 10.0 mi WSW 9.2 mph - N/A   Scattered Clouds
4:53 PM 62.1 °F - 46.9 °F 58% 29.98 in 10.0 mi WNW 5.8 mph - N/A   Mostly Cloudy
5:53 PM 61.0 °F - 44.1 °F 54% 30.00 in 10.0 mi West 6.9 mph - N/A   Mostly Cloudy
6:53 PM 57.9 °F - 45.0 °F 62% 30.03 in 10.0 mi WSW 3.5 mph - N/A   Scattered Clouds
7:53 PM 54.0 °F - 45.0 °F 72% 30.04 in 10.0 mi Calm Calm - N/A   Scattered Clouds
8:53 PM 52.0 °F - 45.0 °F 77% 30.06 in 9.0 mi Calm Calm - N/A   Clear
9:53 PM 50.0 °F - 45.0 °F 83% 30.07 in 8.0 mi Calm Calm - N/A   Mostly Cloudy
10:53 PM 52.0 °F - 45.0 °F 77% 30.07 in 7.0 mi Calm Calm - N/A   Clear
11:53 PM 48.0 °F - 44.1 °F 86% 30.07 in 7.0 mi NE 3.5 mph - N/A   Clear